Weather reports worldwide

Advertisment
Fair Isle, United Kingdom (3008): temperature & dewpoint: 17.03.2017 14:00:00 - 23.03.2017 14:00:00 (GMT)Fair Isle, United Kingdom (3008): temperature -20cm & temperature -100cm: 17.03.2017 14:00:00 - 23.03.2017 14:00:00 (GMT)Fair Isle, United Kingdom (3008): wind speed & gusts: 17.03.2017 14:00:00 - 23.03.2017 14:00:00 (GMT)Fair Isle, United Kingdom (3008): wind direction: 17.03.2017 14:00:00 - 23.03.2017 14:00:00 (GMT)Fair Isle, United Kingdom (3008): reduced air pressure: 17.03.2017 14:00:00 - 23.03.2017 14:00:00 (GMT)Fair Isle, United Kingdom (3008): visibility: 17.03.2017 14:00:00 - 23.03.2017 14:00:00 (GMT)Fair Isle, United Kingdom (3008): precipitation: 17.03.2017 14:00:00 - 23.03.2017 14:00:00 (GMT)
Date & Time tt [°C] td [°C] tt -20cm [°C] tt -100cm [°C] ff [km/h] ff [kn] fx [km/h] fx [kn] dd ppp [hPa] vv [km] rr [mm]
23.03.2017 14:00:00 - - - - - - - - - - - -
23.03.2017 13:00:00 5,9 0,2 - - 24 13 - - WSW 1028,3 29 0,0
23.03.2017 12:00:00 6,2 1,0 - - 24 13 - - WSW 1028,1 30 0,0
23.03.2017 11:00:00 5,6 -0,1 - - 24 13 - - WSW 1027,9 30 0,0
23.03.2017 10:00:00 5,7 0,0 - - 21 11 - - WSW 1027,5 40 0,0
23.03.2017 09:00:00 5,0 -1,1 5,7 6,2 21 11 - - W 1027,2 30 0,0
23.03.2017 08:00:00 4,6 -1,3 - - 18 10 - - W 1026,9 30 0,0
23.03.2017 07:00:00 4,0 -2,2 - - 16 9 - - W 1026,5 40 0,0
23.03.2017 06:00:00 3,5 -2,3 - - 15 8 - - WSW 1025,9 45 0,0
23.03.2017 05:00:00 3,5 -2,9 - - 13 7 - - W 1025,4 45 0,0
23.03.2017 04:00:00 3,7 -2,8 - - 11 6 - - W 1025,3 45 0,0
23.03.2017 03:00:00 3,5 -3,2 - - 11 6 - - WNW 1025,0 50 0,0
23.03.2017 02:00:00 3,7 -2,5 - - 9 5 - - WNW 1024,8 45 0,0
23.03.2017 01:00:00 2,4 -4,1 - - 8 4 - - WNW 1024,2 45 0,0
23.03.2017 00:00:00 2,9 -3,4 - - 8 4 - - NW 1023,7 50 0,0
22.03.2017 23:00:00 1,8 -4,0 - - 8 4 - - N 1023,4 45 0,0
22.03.2017 22:00:00 2,7 -4,2 - - 11 6 - - NNW 1022,9 40 0,0
22.03.2017 21:00:00 3,4 -4,4 - - 13 7 - - WNW 1022,3 50 0,0
22.03.2017 20:00:00 3,4 -4,0 - - 15 8 - - N 1021,3 50 0,0
22.03.2017 19:00:00 3,4 -2,8 - - 15 8 - - NNW 1020,6 50 0,0
22.03.2017 18:00:00 3,7 -2,8 - - 18 10 - - N 1019,7 40 0,0
22.03.2017 17:00:00 3,8 -3,3 - - 16 9 - - N 1018,6 40 0,0
22.03.2017 16:00:00 3,9 -1,0 - - 18 10 - - N 1017,9 27 0,0
22.03.2017 15:00:00 4,2 0,3 - - 28 15 - - N 1017,4 35 0,0
22.03.2017 14:00:00 4,5 -1,7 - - 24 13 - - NNW 1016,8 45 0,0
22.03.2017 13:00:00 4,6 -2,6 - - 21 11 - - NNW 1016,1 40 0,0
22.03.2017 12:00:00 4,7 -1,3 - - 24 13 - - NNW 1015,4 25 0,0
22.03.2017 11:00:00 4,4 -2,1 - - 21 11 - - N 1014,3 25 0,0
22.03.2017 10:00:00 4,7 -1,8 - - 22 12 - - NNW 1013,2 21 0,0
22.03.2017 09:00:00 3,5 -1,5 6,0 6,4 24 13 - - N 1012,1 20 0,0
22.03.2017 08:00:00 2,6 0,3 - - 21 11 - - N 1011,0 28 0,2
22.03.2017 07:00:00 0,6 -0,1 - - 13 7 - - NNE 1010,0 30 0,2
22.03.2017 06:00:00 1,6 0,0 - - 28 15 - - NNW 1008,6 30 0,0
22.03.2017 05:00:00 2,0 -0,7 - - 24 13 52 28 N 1007,4 45 0,2
22.03.2017 04:00:00 2,5 -1,7 - - 22 12 - - NNW 1006,5 28 0,0
22.03.2017 03:00:00 2,7 -1,2 - - 22 12 - - NNW 1005,3 29 0,0
22.03.2017 02:00:00 2,5 -1,8 - - 24 13 - - N 1004,5 40 0,0
22.03.2017 01:00:00 2,8 -5,1 - - 21 11 - - NNW 1003,4 50 0,0
22.03.2017 00:00:00 3,0 -3,7 - - 24 13 - - NNW 1002,4 40 0,0
21.03.2017 23:00:00 2,8 -2,2 - - 22 12 - - N 1001,3 40 0,0
21.03.2017 22:00:00 2,6 -2,1 - - 26 14 - - N 1000,0 40 0,2
21.03.2017 21:00:00 2,6 -1,4 - - 29 16 - - NNE 998,9 40 0,0
21.03.2017 20:00:00 2,4 -0,5 - - 35 19 48 26 NNE 997,6 35 0,0
21.03.2017 19:00:00 3,7 1,5 - - 34 18 - - NNE 996,2 30 0,0
21.03.2017 18:00:00 4,2 0,1 - - 15 8 - - NNW 994,7 30 0,0
21.03.2017 17:00:00 4,1 1,3 - - 18 10 - - NNW 993,7 10 0,0
21.03.2017 16:00:00 4,8 1,5 - - 15 8 - - N 992,9 28 0,0
21.03.2017 15:00:00 4,5 2,3 - - 13 7 - - NNW 992,2 35 0,0
21.03.2017 14:00:00 4,3 1,6 - - 9 5 - - N 991,6 45 0,0
21.03.2017 13:00:00 4,4 2,3 - - 9 5 - - ENE 991,0 45 0,0
21.03.2017 12:00:00 3,7 2,2 - - 13 7 - - NE 990,3 35 0,0
21.03.2017 11:00:00 3,2 2,1 - - 11 6 - - N 989,7 35 0,0
21.03.2017 10:00:00 3,0 2,0 - - 11 6 - - N 989,1 30 0,0
21.03.2017 09:00:00 2,6 1,7 6,2 6,4 15 8 - - N 988,4 30 0,2
21.03.2017 08:00:00 2,6 1,5 - - 16 9 - - N 987,7 14 0,4
21.03.2017 07:00:00 2,9 1,5 - - 22 12 - - WNW 987,2 12 0,2
21.03.2017 06:00:00 3,5 2,0 - - 21 11 - - WSW 986,6 18 0,4
21.03.2017 05:00:00 4,5 2,5 - - 26 14 - - WSW 986,1 22 0,0
21.03.2017 04:00:00 5,4 1,2 - - 18 10 - - W 985,9 30 0,0
21.03.2017 03:00:00 5,3 1,0 - - 22 12 46 25 W 985,5 26 0,0
21.03.2017 02:00:00 4,6 1,6 - - 24 13 - - WNW 985,3 30 0,2
21.03.2017 01:00:00 5,4 1,4 - - 29 16 50 27 W 984,9 28 0,0
21.03.2017 00:00:00 5,8 -0,1 - - 35 19 52 28 W 984,5 30 0,0
20.03.2017 23:00:00 5,7 0,3 - - 37 20 55 30 W 984,2 30 0,0
20.03.2017 22:00:00 5,8 1,5 - - 34 18 61 33 W 983,5 23 0,0
20.03.2017 21:00:00 5,2 1,5 - - 44 24 68 37 W 982,7 29 0,0
20.03.2017 20:00:00 5,6 3,1 - - 42 23 80 43 WNW 981,2 21 0,0
20.03.2017 19:00:00 5,9 4,1 - - 55 30 85 46 W 979,1 12 0,4
20.03.2017 18:00:00 6,0 4,0 - - 54 29 91 49 W 977,0 11 0,2
20.03.2017 17:00:00 6,0 4,9 - - 57 31 96 52 WSW 975,6 9 0,0
20.03.2017 16:00:00 6,0 4,7 - - 65 35 91 49 SW 975,4 8 0,0
20.03.2017 15:00:00 5,9 4,4 - - 65 35 91 49 SSW 976,2 7 0,6
20.03.2017 14:00:00 5,4 2,6 - - 59 32 80 43 SSW 977,9 10 0,0
20.03.2017 13:00:00 6,9 2,0 - - 55 30 76 41 SSW 979,5 15 0,0
20.03.2017 12:00:00 6,8 2,2 - - 54 29 81 44 SSW 980,5 20 0,0
20.03.2017 11:00:00 6,7 3,3 - - 50 27 72 39 SSW 981,2 16 0,0
20.03.2017 10:00:00 6,7 4,3 - - 46 25 76 41 SSW 981,4 16 0,4
20.03.2017 09:00:00 5,5 4,1 6,2 6,4 48 26 70 38 S 982,6 6 1,2
20.03.2017 08:00:00 6,4 3,0 - - 41 22 65 35 SE 984,0 16 0,0
20.03.2017 07:00:00 6,0 3,0 - - 39 21 54 29 S 986,7 25 0,0
20.03.2017 06:00:00 5,7 2,7 - - 34 18 - - S 987,8 24 0,0
20.03.2017 05:00:00 5,4 3,0 - - 29 16 - - S 988,7 19 0,0
20.03.2017 04:00:00 5,5 2,8 - - 26 14 46 25 SW 989,3 15 0,0
20.03.2017 03:00:00 5,7 2,9 - - 34 18 52 28 WSW 990,3 15 0,0
20.03.2017 02:00:00 5,7 2,9 - - 39 21 63 34 WSW 991,1 22 0,0
20.03.2017 01:00:00 5,5 3,9 - - 42 23 70 38 SW 991,4 13 0,2
20.03.2017 00:00:00 5,6 3,6 - - 46 25 65 35 SW 990,9 14 0,0
19.03.2017 23:00:00 5,6 3,0 - - 42 23 70 38 WSW 990,9 17 0,4
19.03.2017 22:00:00 5,7 3,3 - - 44 24 63 34 WSW 990,9 15 0,0
19.03.2017 21:00:00 5,4 2,7 - - 44 24 61 33 WSW 991,0 14 0,8
19.03.2017 20:00:00 5,4 3,2 - - 37 20 63 34 WSW 990,9 13 0,2
19.03.2017 19:00:00 6,1 3,9 - - 37 20 63 34 WSW 990,7 9 0,2
19.03.2017 18:00:00 6,6 2,9 - - 46 25 63 34 WSW 990,1 14 0,0
19.03.2017 17:00:00 7,0 3,0 - - 44 24 68 37 WSW 989,9 14 0,0
19.03.2017 16:00:00 6,6 3,3 - - 41 22 61 33 WSW 990,0 14 0,0
19.03.2017 15:00:00 6,5 3,8 - - 31 17 54 29 WSW 989,8 15 0,2
19.03.2017 14:00:00 6,0 4,6 - - 34 18 63 34 W 989,6 14 1,4
19.03.2017 13:00:00 6,0 3,4 - - 35 19 57 31 W 989,6 28 0,0
19.03.2017 12:00:00 7,1 5,1 - - 31 17 46 25 WSW 989,2 18 0,0
19.03.2017 11:00:00 5,4 4,4 - - 31 17 55 30 W 989,7 9 1,6
19.03.2017 10:00:00 7,0 5,3 - - 35 19 52 28 WSW 989,3 30 0,0
19.03.2017 09:00:00 6,8 5,3 6,2 6,4 34 18 - - SW 989,2 25 0,0
19.03.2017 08:00:00 6,3 4,4 - - 29 16 - - SW 989,7 21 0,0
19.03.2017 07:00:00 6,0 4,5 - - 29 16 - - SW 989,7 30 0,0
19.03.2017 06:00:00 5,9 4,5 - - 34 18 - - SW 990,4 30 0,0
19.03.2017 05:00:00 5,8 4,4 - - 35 19 52 28 SW 990,7 40 0,0
19.03.2017 04:00:00 5,8 4,6 - - 39 21 48 26 SW 991,0 16 1,2
19.03.2017 03:00:00 5,7 4,7 - - 34 18 50 27 SW 991,6 9 1,8
19.03.2017 02:00:00 6,6 5,9 - - 39 21 57 31 SSW 992,4 7 0,4
19.03.2017 01:00:00 7,0 5,9 - - 34 18 - - S 993,5 18 0,0
19.03.2017 00:00:00 6,7 5,6 - - 29 16 - - S 994,5 19 0,0
18.03.2017 23:00:00 6,8 5,6 - - 29 16 - - SSW 995,6 18 0,0
18.03.2017 22:00:00 6,4 5,5 - - 34 18 48 26 SSW 996,5 16 1,4
18.03.2017 21:00:00 5,9 5,1 - - 28 15 52 28 S 997,6 3,2 0,6
18.03.2017 20:00:00 5,2 3,8 - - 37 20 52 28 S 998,3 25 0,2
18.03.2017 19:00:00 5,3 2,3 - - 37 20 50 27 SSE 999,1 28 0,0
18.03.2017 18:00:00 5,3 1,8 - - 31 17 46 25 SSE 999,9 23 0,0
18.03.2017 17:00:00 5,0 0,4 - - 28 15 - - SSE 1000,8 40 0,0
18.03.2017 16:00:00 5,4 -0,2 - - 22 12 - - S 1001,7 35 0,0
18.03.2017 15:00:00 5,3 -1,5 - - 13 7 - - SSE 1001,6 35 0,0
18.03.2017 14:00:00 5,2 -1,9 - - 13 7 - - SSW 1002,2 50 0,0
18.03.2017 13:00:00 6,0 -1,1 - - 8 4 - - WSW 1002,5 40 0,0
18.03.2017 12:00:00 4,5 -3,2 - - 5 3 - - W 1002,8 40 0,0
18.03.2017 11:00:00 4,4 -2,9 - - 9 5 - - WNW 1002,5 35 0,0
18.03.2017 10:00:00 4,2 -2,9 - - 15 8 - - WNW 1002,5 35 0,0
18.03.2017 09:00:00 3,7 -3,9 6,2 6,5 16 9 - - WNW 1002,0 35 0,0
18.03.2017 08:00:00 3,0 -4,7 - - 15 8 - - NW 1001,4 45 0,0
18.03.2017 07:00:00 2,6 -3,4 - - 22 12 - - NNW 1000,9 45 0,0
18.03.2017 06:00:00 2,7 -2,6 - - 22 12 - - NNW 1000,7 40 0,0
18.03.2017 05:00:00 2,7 -3,6 - - 21 11 - - NNW 999,9 40 0,0
18.03.2017 04:00:00 3,3 -3,1 - - 22 12 - - NNW 999,3 40 0,0
18.03.2017 03:00:00 3,0 -2,7 - - 21 11 - - NNW 998,8 30 0,0
18.03.2017 02:00:00 2,3 -0,7 - - 16 9 - - N 998,2 30 0,0
18.03.2017 01:00:00 2,9 -1,7 - - 15 8 - - N 997,5 30 0,0
18.03.2017 00:00:00 3,4 -1,4 - - 21 11 - - N 997,1 26 0,0
17.03.2017 23:00:00 3,0 -2,3 - - 16 9 - - N 996,7 27 0,0
17.03.2017 22:00:00 3,2 -1,3 - - 22 12 - - N 996,6 30 0,0
17.03.2017 21:00:00 3,8 0,4 - - 15 8 - - N 996,2 23 0,0
17.03.2017 20:00:00 3,4 0,5 - - 18 10 - - NNE 995,8 24 0,0
17.03.2017 19:00:00 2,6 0,9 - - 15 8 - - NNE 996,1 40 0,0
17.03.2017 18:00:00 3,8 0,8 - - 9 5 - - N 996,3 35 0,0
17.03.2017 17:00:00 4,3 1,4 - - 9 5 - - NW 996,5 25 0,2
17.03.2017 16:00:00 4,0 1,8 - - 13 7 - - NNW 996,6 10 0,2
17.03.2017 15:00:00 3,7 1,8 - - 15 8 - - NNW 997,2 17 0,4
17.03.2017 14:00:00 4,7 1,4 - - 22 12 46 25 WNW 997,9 20 0,0

tt = temperature
td = dewpoint
tt -20cm = temperature -20cm
tt -100cm = temperature -100cm
ff = wind speed
fx = gusts
dd = wind direction
ppp = reduced air pressure
vv = visibility
rr = precipitation

Next stations